Location: Robledo de Chavela
(40.5014°N, 4.2377°W)
Time: 11:01:08
(UTC+00:00)

CZ-4C R/B - Pass Details

Date: 18 April 2024
Orbit: 530 x 1464 km, 63.4° (Epoch: 28 May)

Event Time Altitude Azimuth Distance (km) Brightness Sun altitude
Rises 22:18:12 0° 325° (NW) 3,868 6.8 -31.5°
Reaches altitude 10° 22:20:40 10° 325° (NW) 3,030 5.9 -31.8°
Maximum altitude 22:28:11 88° 238° (WSW) 1,318 3.0 -32.5°
Enters shadow 22:28:36 82° 165° (SSE) 1,335 2.9 -32.6°
